DECAYED

NOAA 16 DEB, 41666 (Decayed)

Orbit data source: Space-Track

NOAA 16 DEB, 41666 was space debris in SSO originally from a launch on Thu, 21 Sep 2000 UTC launched from the Air Force Western Test Range (AFWTR). Debris objects in space refer to the collection of defunct objects orbiting the Earth. Examples of debris include non-operational satellites, rocket bodies, and fragments generated from explosions, collisions, or faulty payload assembly.

Not visible in the next 10 days
Identifier
41666, 2000-055PF
Orbit
Decayed
Country
Flag of USUS
Related business
Manufacturer
Unknown
Mission
Decayed spacecraft
Bus & Motor
Unknown
Mass
Unknown
Launch date (UTC)
2000-09-21 (26 years ago)
Launch vehicle
Unknown
Launch site
Air Force Western Test Range (AFWTR)
Object type
Payload
Rocket body
Debris
Shape & HBR
Unknown shape, 0.1 m
Radar Cross Section
Small (<0.1 m²)

Expand to show TLE details & history
Last TLE update: 1 year ago

TLE from 1 year ago
0 NOAA 16 DEB
1 41666U 00055PF  25070.23426001  .00612702  00000-0  18691-1 0  9999
2 41666  98.8616 256.8767 0023755 304.4267  55.4724 15.31499341461369
Epoch: 2025-03-11T05:37Z
TLE epoch observation values (Epoch: 2025-03-11T05:37:20.064Z)
Latitude
-0.00009°
Longitude
3.40298°
Altitude
465.2 km
Speed
7.639 km/s
True Right ascension
17h 07m 30s
True Declination
0° 00' 00"
Sunlit
Object was in daylight at epoch
Visualization orbit readout
Latitude
Unknown
Longitude
Unknown
Altitude
Unknown
Speed
Unknown
Apparent Right ascension
Unknown
Apparent Declination
Unknown
Sunlit
N/A
Visualization observer readout
Local Sidereal Time
21:46:22
Azimuth
Unknown
Elevation
Unknown
Doppler factor
Unknown
Orbital elements
Apogee altitude
484.621 km
Perigee altitude
452.093 km
Semi-major axis
6,846.494 km
Eccentricity
0.00238
Inclination
98.8616°
RAAN
256.8767°
Arg. of periapsis
304.4267°
True anomaly
55.69704°
Mean anomaly
55.4724°
Eccentric anomaly
55.58468°
Mean motion
3.83125 °/min
Orbital period
93.96 mins
BSTAR
0.018691
Loading maneuver chart data...
Computing Atmospheric mass density...

Documentation

Showing up to 5 results
|